EW7535 Weather Reports


Display with metric or nautical units.
time (UTC)temp
F
wind
direction
speed
MPH
gust
MPH
rain 1hr
in
rain 24hr
in
rain mn
in
humidity
%
barometer
mb
20260901134601 71 94 0.0 4.0 0.00 0.47 0.00 85 1013.1
20260901133058 70 105 0.0 2.0 0.00 0.61 0.00 87 1013.0
20260901131553 69 136 0.0 2.0 0.00 0.61 0.00 88 1012.8
20260901130051 69 96 0.0 2.0 0.00 0.61 0.00 88 1012.6
20260901124548 69 105 0.0 2.0 0.00 0.61 0.00 88 1012.4
20260901123045 69 96 0.0 2.0 0.00 0.80 0.00 87 1012.2
20260901121515 70 128 0.0 0.0 0.00 0.80 0.00 84 1012.1
20260901120018 71 128 0.0 1.0 0.00 0.80 0.00 83 1012.0
20260901114540 71 92 0.0 0.0 0.00 0.80 0.00 83 1011.9
20260901113040 70 102 0.0 0.0 0.00 0.91 0.00 84 1012.0
20260901111536 70 101 0.0 0.0 0.00 0.91 0.00 84 1012.0
20260901110035 70 101 0.0 0.0 0.00 0.91 0.00 84 1011.8
20260901104533 70 101 0.0 0.0 0.00 0.91 0.00 84 1011.9
20260901103031 71 101 0.0 0.0 0.00 0.91 0.00 83 1011.8
20260901101550 71 101 0.0 2.0 0.00 0.91 0.00 82 1011.7
20260901100028 71 124 0.0 0.0 0.00 0.91 0.00 83 1011.5
20260901094536 71 124 0.0 0.0 0.00 0.91 0.00 83 1011.6
20260901093025 71 94 0.0 0.0 0.00 0.91 0.00 83 1011.4
20260901091531 71 94 0.0 0.0 0.00 0.91 0.00 83 1011.6
20260901090020 71 101 0.0 0.0 0.00 0.91 0.00 84 1011.5
20260901084533 71 105 0.0 0.0 0.00 0.91 0.00 84 1011.5
20260901083018 71 106 0.0 1.0 0.00 0.91 0.00 83 1011.6
20260901081516 71 108 0.0 0.0 0.00 0.91 0.00 85 1011.5
20260901080032 71 124 0.0 0.0 0.00 0.91 0.00 85 1011.5
20260901074512 71 124 0.0 0.0 0.00 0.91 0.00 84 1011.6
20260901073010 72 124 0.0 0.0 0.00 0.91 0.91 84 1011.6
20260901071507 72 124 0.0 3.0 0.00 0.91 0.91 83 1011.5
20260901070007 72 105 0.0 0.0 0.00 0.91 0.91 81 1011.5
20260901064506 73 98 0.0 0.0 0.00 0.91 0.91 81 1011.5
20260901063005 73 98 0.0 0.0 0.00 0.91 0.91 81 1011.7
20260901061539 73 98 0.0 0.0 0.00 0.91 0.91 81 1011.8
20260901060036 73 98 0.0 0.0 0.00 0.91 0.91 79 1011.7
20260901054503 75 98 0.0 0.0 0.00 0.91 0.91 75 1011.6
20260901053003 75 98 0.0 2.0 0.00 0.91 0.91 74 1011.3
20260901051601 75 104 0.0 3.0 0.00 0.91 0.91 73 1011.4
20260901050100 75 108 0.0 2.0 0.00 0.91 0.91 73 1011.5
20260901044620 75 114 0.0 5.0 0.00 0.91 0.91 72 1011.7
20260901043059 75 84 0.0 7.0 0.00 0.91 0.91 72 1011.8
20260901041558 75 98 1.0 4.0 0.00 0.91 0.91 72 1011.5
20260901040103 75 106 0.0 3.0 0.00 0.91 0.91 71 1011.4
20260901034555 76 87 0.0 2.0 0.00 0.91 0.91 71 1011.2
20260901033055 75 122 0.0 2.0 0.00 0.91 0.91 72 1011.0
20260901031558 75 110 0.0 0.0 0.00 0.91 0.91 73 1010.9
20260901030051 75 129 0.0 0.0 0.00 0.91 0.91 71 1010.7
20260901024559 76 105 0.0 2.0 0.00 0.91 0.91 71 1010.3
20260901023050 75 124 0.0 0.0 0.00 0.91 0.91 74 1010.0
20260901021604 75 124 0.0 0.0 0.00 0.91 0.91 75 1009.7
20260901020049 75 124 0.0 0.0 0.00 0.91 0.91 76 1009.6
20260901014546 76 124 0.0 0.0 0.00 0.91 0.91 72 1009.4
20260901013049 77 124 0.0 0.0 0.00 0.91 0.91 74 1008.9
20260901011546 78 124 0.0 0.0 0.00 0.91 0.91 70 1008.8
20260901010016 79 124 0.0 0.0 0.00 0.91 0.91 69 1008.7
20260901004516 79 124 0.0 0.0 0.00 0.91 0.91 64 1008.7
20260901003013 80 124 0.0 0.0 0.00 0.91 0.91 67 1008.8
20260901001612 80 124 0.0 0.0 0.00 0.91 0.91 64 1008.8
20260831231523 79 108 2.0 8.0 0.00 0.91 0.91 67 1009.1
20260831230040 79 124 3.0 11.0 0.00 0.91 0.91 66 1009.1
20260831224603 79 130 3.0 9.0 0.00 0.91 0.91 68 1009.2
20260831223010 79 68 3.0 8.0 0.00 0.91 0.91 72 1009.3
20260831221509 78 103 1.0 5.0 0.01 0.91 0.91 74 1009.4
20260831220047 78 135 0.0 5.0 0.01 0.91 0.91 79 1009.8
20260831214544 75 128 0.0 2.0 0.03 0.91 0.91 87 1010.0
20260831213034 71 117 0.0 0.0 0.04 0.91 0.91 92 1010.4
20260831211540 70 96 2.0 6.0 0.04 0.90 0.90 91 1010.6
20260831210034 69 95 3.0 7.0 0.08 0.90 0.90 92 1011.1
20260831204535 69 125 0.0 4.0 0.10 0.88 0.88 91 1011.9
20260831203034 69 89 4.0 11.0 0.11 0.87 0.87 91 1012.0
20260831201528 69 88 5.0 11.0 0.11 0.85 0.85 92 1012.7
20260831200025 69 79 2.0 6.0 0.11 0.82 0.82 92 1013.3
20260831194524 68 99 1.0 7.0 0.09 0.78 0.78 92 1013.4
20260831193024 68 120 0.0 3.0 0.14 0.76 0.76 92 1013.5
20260831191536 68 141 1.0 3.0 0.19 0.74 0.74 92 1013.6
20260831190019 69 147 0.0 2.0 0.19 0.71 0.71 92 1013.6
20260831184518 68 335 1.0 5.0 0.17 0.69 0.69 92 1013.1
20260831183004 68 306 2.0 10.0 0.10 0.62 0.62 91 1013.7
20260831181549 68 266 10.0 20.0 0.03 0.55 0.55 90 1013.5
20260831180036 69 278 9.0 15.0 0.03 0.52 0.52 90 1012.7
20260831174532 69 321 7.0 20.0 0.08 0.52 0.52 90 1012.9
20260831173038 69 273 9.0 16.0 0.08 0.52 0.52 87 1012.8
20260831171527 71 309 6.0 12.0 0.08 0.52 0.52 88 1012.3
20260831170026 72 285 6.0 19.0 0.06 0.50 0.50 84 1012.2
20260831164526 76 274 5.0 12.0 0.00 0.44 0.44 72 1011.9
20260831163026 76 300 5.0 10.0 0.00 0.44 0.44 76 1011.4
20260831161519 76 274 6.0 11.0 0.00 0.44 0.44 77 1011.0
20260831160027 77 301 0.0 4.0 0.00 0.44 0.44 77 1010.8
20260831154521 78 191 0.0 2.0 0.00 0.44 0.44 75 1010.6
20260831153023 77 123 0.0 2.0 0.00 0.44 0.44 77 1010.5
20260831151526 75 130 0.0 2.0 0.00 0.44 0.44 81 1010.6
20260831150056 75 158 0.0 2.0 0.00 0.44 0.44 84 1010.2
20260831143102 72 122 0.0 2.0 0.00 0.44 0.44 88 1009.7
20260831141550 71 109 0.0 3.0 0.00 0.44 0.44 88 1009.7